| time (UTC) | temp F | wind direction | speed knots | gust knots | rain 1hr in | rain 24hr in | rain mn in | humidity % | barometer mb |
| 20260510045004 | 76 | 335 | 2.6 | 4.3 | 0.00 | 0.00 | 0.00 | 59 | 1025.4 |
| 20260510044504 | 77 | 312 | 1.7 | 2.6 | 0.00 | 0.00 | 0.00 | 58 | 1025.4 |
| 20260510044005 | 77 | 180 | 1.7 | 1.7 | 0.00 | 0.00 | 0.00 | 58 | 1025.4 |
| 20260510043505 | 77 | 37 | 5.2 | 5.2 | 0.00 | 0.00 | 0.00 | 59 | 1025.4 |
| 20260510043004 | 77 | 201 | 3.5 | 3.5 | 0.00 | 0.00 | 0.00 | 58 | 1025.4 |
| 20260510042504 | 77 | 5 | 2.6 | 3.5 | 0.00 | 0.00 | 0.00 | 59 | 1025.4 |
| 20260510042004 | 77 | 91 | 3.5 | 3.5 | 0.00 | 0.00 | 0.00 | 58 | 1025.4 |
| 20260510041504 | 78 | 258 | 0.0 | 2.6 | 0.00 | 0.00 | 0.00 | 58 | 1025.4 |
| 20260510041004 | 78 | 313 | 0.0 | 0.9 | 0.00 | 0.00 | 0.00 | 57 | 1025.4 |
| 20260510040504 | 78 | 316 | 0.0 | 0.9 | 0.00 | 0.00 | 0.00 | 57 | 1025.4 |
| 20260510040004 | 79 | 169 | 1.7 | 1.7 | 0.00 | 0.00 | 0.00 | 56 | 1025.4 |
| 20260510035504 | 78 | 347 | 4.3 | 5.2 | 0.00 | 0.00 | 0.00 | 58 | 1025.4 |
| 20260510035004 | 78 | 245 | 2.6 | 3.5 | 0.00 | 0.00 | 0.00 | 58 | 1025.4 |
| 20260510034504 | 78 | 293 | 1.7 | 2.6 | 0.00 | 0.00 | 0.00 | 57 | 1025.4 |
| 20260510034005 | 78 | 123 | 3.5 | 3.5 | 0.00 | 0.00 | 0.00 | 57 | 1025.4 |
| 20260510033504 | 78 | 353 | 1.7 | 2.6 | 0.00 | 0.00 | 0.00 | 58 | 1025.4 |
| 20260510033004 | 78 | 240 | 0.9 | 0.9 | 0.00 | 0.00 | 0.00 | 58 | 1025.4 |
| 20260510032504 | 78 | 199 | 0.9 | 1.7 | 0.00 | 0.00 | 0.00 | 57 | 1025.4 |
| 20260510032005 | 78 | 255 | 2.6 | 2.6 | 0.00 | 0.00 | 0.00 | 57 | 1025.4 |
| 20260510031504 | 79 | 319 | 0.9 | 2.6 | 0.00 | 0.00 | 0.00 | 56 | 1025.4 |
| 20260510031005 | 78 | 116 | 1.7 | 2.6 | 0.00 | 0.00 | 0.00 | 57 | 1025.4 |
| 20260510030504 | 78 | 271 | 0.9 | 1.7 | 0.00 | 0.00 | 0.00 | 57 | 1025.4 |
| 20260510030005 | 77 | 287 | 4.3 | 4.3 | 0.00 | 0.00 | 0.00 | 59 | 1025.4 |
| 20260510025504 | 78 | 328 | 0.9 | 0.9 | 0.00 | 0.00 | 0.00 | 60 | 1025.4 |
| 20260510025004 | 77 | 216 | 2.6 | 2.6 | 0.00 | 0.00 | 0.00 | 59 | 1025.4 |
| 20260510024504 | 76 | 228 | 1.7 | 4.3 | 0.00 | 0.00 | 0.00 | 60 | 1025.7 |
| 20260510024004 | 77 | 258 | 1.7 | 2.6 | 0.00 | 0.00 | 0.00 | 60 | 1025.7 |
| 20260510023505 | 76 | 239 | 3.5 | 4.3 | 0.00 | 0.00 | 0.00 | 61 | 1025.7 |
| 20260510023004 | 77 | 270 | 1.7 | 1.7 | 0.00 | 0.00 | 0.00 | 60 | 1025.7 |
| 20260510022504 | 76 | 245 | 1.7 | 3.5 | 0.00 | 0.00 | 0.00 | 60 | 1025.7 |
| 20260510022004 | 76 | 216 | 1.7 | 4.3 | 0.00 | 0.00 | 0.00 | 60 | 1025.7 |
| 20260510021504 | 77 | 289 | 0.9 | 0.9 | 0.00 | 0.00 | 0.00 | 59 | 1025.7 |
| 20260510021004 | 78 | 272 | 2.6 | 2.6 | 0.00 | 0.00 | 0.00 | 57 | 1025.7 |
| 20260510020506 | 79 | 170 | 2.6 | 4.3 | 0.00 | 0.00 | 0.00 | 55 | 1025.7 |
| 20260510020005 | 78 | 319 | 1.7 | 1.7 | 0.00 | 0.00 | 0.00 | 57 | 1025.7 |
| 20260510015504 | 78 | 205 | 1.7 | 2.6 | 0.00 | 0.00 | 0.00 | 56 | 1025.7 |
| 20260510015004 | 80 | 309 | 0.9 | 1.7 | 0.00 | 0.00 | 0.00 | 55 | 1025.7 |
| 20260510014505 | 78 | 326 | 0.9 | 0.9 | 0.00 | 0.00 | 0.00 | 59 | 1026.4 |
| 20260510014004 | 80 | 248 | 1.7 | 3.5 | 0.00 | 0.00 | 0.00 | 55 | 1026.4 |
| 20260510013505 | 79 | 198 | 2.6 | 4.3 | 0.00 | 0.00 | 0.00 | 55 | 1026.4 |
| 20260510013004 | 79 | 318 | 2.6 | 2.6 | 0.00 | 0.00 | 0.00 | 56 | 1026.4 |
| 20260510012504 | 78 | 258 | 2.6 | 3.5 | 0.00 | 0.00 | 0.00 | 58 | 1026.8 |
| 20260510012005 | 79 | 12 | 0.0 | 0.0 | 0.00 | 0.00 | 0.00 | 58 | 1026.8 |
| 20260510011504 | 77 | 306 | 0.9 | 0.9 | 0.00 | 0.00 | 0.00 | 60 | 1026.8 |
| 20260510011004 | 75 | 259 | 3.5 | 4.3 | 0.00 | 0.00 | 0.00 | 60 | 1026.8 |
| 20260510010504 | 76 | 280 | 1.7 | 1.7 | 0.00 | 0.00 | 0.00 | 59 | 1026.8 |
| 20260510010005 | 76 | 288 | 0.9 | 2.6 | 0.00 | 0.00 | 0.00 | 58 | 1026.8 |
| 20260510005504 | 76 | 264 | 0.9 | 0.9 | 0.00 | 0.00 | 0.00 | 57 | 1026.8 |
| 20260510005004 | 77 | 295 | 0.0 | 0.9 | 0.00 | 0.00 | 0.00 | 56 | 1026.8 |
| 20260510004505 | 77 | 288 | 0.9 | 0.9 | 0.00 | 0.00 | 0.00 | 56 | 1027.4 |
| 20260510004004 | 77 | 293 | 0.9 | 2.6 | 0.00 | 0.00 | 0.00 | 56 | 1027.4 |
| 20260510003504 | 77 | 277 | 0.0 | 0.9 | 0.00 | 0.00 | 0.00 | 56 | 1027.4 |
| 20260510003004 | 77 | 297 | 0.9 | 0.9 | 0.00 | 0.00 | 0.00 | 56 | 1027.4 |
| 20260510002504 | 77 | 295 | 0.9 | 0.9 | 0.00 | 0.00 | 0.00 | 55 | 1027.8 |
| 20260510002005 | 75 | 290 | 0.9 | 1.7 | 0.00 | 0.00 | 0.00 | 57 | 1027.8 |
| 20260510001504 | 73 | 253 | 2.6 | 2.6 | 0.00 | 0.00 | 0.00 | 59 | 1027.8 |
| 20260510001005 | 74 | 245 | 0.9 | 0.9 | 0.00 | 0.00 | 0.00 | 58 | 1028.1 |
| 20260510000504 | 74 | 218 | 0.9 | 0.9 | 0.00 | 0.00 | 0.00 | 58 | 1028.1 |
| 20260510000005 | 75 | 300 | 0.9 | 0.9 | 0.00 | 0.00 | 0.00 | 59 | 1027.8 |
| 20260509235504 | 73 | 150 | 0.9 | 1.7 | 0.00 | 0.00 | 0.00 | 58 | 1027.8 |
| 20260509235004 | 74 | 292 | 1.7 | 1.7 | 0.00 | 0.00 | 0.00 | 56 | 1027.8 |
| 20260509234504 | 74 | 277 | 0.9 | 0.9 | 0.00 | 0.00 | 0.00 | 57 | 1027.8 |
| 20260509234004 | 73 | 287 | 0.9 | 1.7 | 0.00 | 0.00 | 0.00 | 59 | 1027.8 |
| 20260509233504 | 74 | 296 | 0.9 | 0.9 | 0.00 | 0.00 | 0.00 | 60 | 1027.8 |
| 20260509233004 | 71 | 295 | 0.9 | 0.9 | 0.00 | 0.00 | 0.00 | 62 | 1027.8 |
| 20260509232504 | 71 | 272 | 0.9 | 0.9 | 0.00 | 0.00 | 0.00 | 61 | 1027.4 |
| 20260509232004 | 68 | 292 | 1.7 | 1.7 | 0.00 | 0.00 | 0.00 | 64 | 1027.4 |
| 20260509231504 | 67 | 274 | 1.7 | 1.7 | 0.00 | 0.00 | 0.00 | 65 | 1027.4 |
| 20260509231004 | 68 | 249 | 1.7 | 1.7 | 0.00 | 0.00 | 0.00 | 64 | 1027.4 |
| 20260509230506 | 69 | 287 | 0.0 | 0.9 | 0.00 | 0.00 | 0.00 | 64 | 1027.4 |
| 20260509230004 | 67 | 283 | 0.9 | 0.9 | 0.00 | 0.00 | 0.00 | 65 | 1027.4 |
| 20260509225504 | 66 | 270 | 1.7 | 2.6 | 0.00 | 0.00 | 0.00 | 66 | 1027.4 |
| 20260509225004 | 65 | 292 | 0.9 | 0.9 | 0.00 | 0.00 | 0.00 | 66 | 1027.4 |
| 20260509224505 | 65 | 273 | 1.7 | 1.7 | 0.00 | 0.00 | 0.00 | 68 | 1027.4 |
| 20260509224004 | 65 | 305 | 0.9 | 0.9 | 0.00 | 0.00 | 0.00 | 69 | 1027.4 |
| 20260509223505 | 64 | 291 | 1.7 | 2.6 | 0.00 | 0.00 | 0.00 | 69 | 1026.8 |
| 20260509223006 | 64 | 292 | 0.0 | 0.9 | 0.00 | 0.00 | 0.00 | 70 | 1026.8 |
| 20260509222504 | 63 | 289 | 0.0 | 0.0 | 0.00 | 0.00 | 0.00 | 73 | 1026.4 |
| 20260509222004 | 62 | 288 | 0.0 | 0.9 | 0.00 | 0.00 | 0.00 | 73 | 1026.4 |
| 20260509221504 | 61 | 274 | 0.9 | 0.9 | 0.00 | 0.00 | 0.00 | 74 | 1026.4 |
| 20260509221004 | 60 | 281 | 1.7 | 2.6 | 0.00 | 0.00 | 0.00 | 75 | 1026.8 |
| 20260509220504 | 59 | 273 | 0.9 | 1.7 | 0.00 | 0.00 | 0.00 | 77 | 1026.8 |
| 20260509220004 | 59 | 278 | 0.9 | 0.9 | 0.00 | 0.00 | 0.00 | 78 | 1026.8 |
| 20260509215504 | 58 | 277 | 1.7 | 1.7 | 0.00 | 0.00 | 0.00 | 78 | 1026.8 |
| 20260509215004 | 58 | 275 | 0.9 | 1.7 | 0.00 | 0.00 | 0.00 | 79 | 1026.8 |
| 20260509214504 | 57 | 267 | 0.9 | 0.9 | 0.00 | 0.00 | 0.00 | 80 | 1026.8 |
| 20260509214004 | 57 | 260 | 1.7 | 2.6 | 0.00 | 0.00 | 0.00 | 81 | 1026.8 |
| 20260509213504 | 56 | 281 | 1.7 | 1.7 | 0.00 | 0.00 | 0.00 | 82 | 1026.4 |
| 20260509213005 | 56 | 275 | 0.9 | 0.9 | 0.00 | 0.00 | 0.00 | 83 | 1026.4 |
| 20260509212505 | 56 | 273 | 0.9 | 0.9 | 0.00 | 0.00 | 0.00 | 84 | 1026.4 |
| 20260509212005 | 55 | 291 | 0.9 | 0.9 | 0.00 | 0.00 | 0.00 | 85 | 1026.4 |
| 20260509211504 | 54 | 283 | 0.0 | 0.0 | 0.00 | 0.00 | 0.00 | 87 | 1026.4 |
| 20260509211004 | 54 | 288 | 0.0 | 0.9 | 0.00 | 0.00 | 0.00 | 88 | 1025.7 |
| 20260509210504 | 54 | 299 | 0.0 | 0.0 | 0.00 | 0.00 | 0.00 | 88 | 1025.7 |
| 20260509210004 | 53 | 246 | 0.0 | 0.0 | 0.00 | 0.00 | 0.00 | 90 | 1025.7 |
| 20260509205504 | 52 | 276 | 0.0 | 0.0 | 0.00 | 0.00 | 0.00 | 90 | 1025.7 |
| 20260509205005 | 52 | 276 | 0.0 | 0.0 | 0.00 | 0.00 | 0.00 | 90 | 1025.7 |
| 20260509204504 | 52 | 276 | 0.0 | 0.0 | 0.00 | 0.00 | 0.00 | 90 | 1025.7 |
| 20260509204005 | 52 | 277 | 0.0 | 0.0 | 0.00 | 0.00 | 0.00 | 90 | 1025.7 |
| 20260509203504 | 53 | 316 | 0.9 | 0.9 | 0.00 | 0.00 | 0.00 | 89 | 1025.7 |
| 20260509203004 | 52 | 247 | 0.9 | 0.9 | 0.00 | 0.00 | 0.00 | 90 | 1025.7 |
| 20260509202504 | 52 | 250 | 0.0 | 0.9 | 0.00 | 0.00 | 0.00 | 90 | 1025.7 |
| 20260509202004 | 52 | 250 | 0.0 | 0.0 | 0.00 | 0.00 | 0.00 | 90 | 1025.7 |
| 20260509201504 | 52 | 249 | 0.0 | 0.0 | 0.00 | 0.00 | 0.00 | 91 | 1025.7 |
| 20260509201004 | 52 | 250 | 0.0 | 0.0 | 0.00 | 0.00 | 0.00 | 91 | 1025.7 |
| 20260509200506 | 52 | 249 | 0.0 | 0.0 | 0.00 | 0.00 | 0.00 | 91 | 1025.7 |
| 20260509200004 | 52 | 250 | 0.0 | 0.0 | 0.00 | 0.00 | 0.00 | 91 | 1025.7 |
| 20260509195504 | 52 | 250 | 0.0 | 0.0 | 0.00 | 0.00 | 0.00 | 91 | 1025.7 |
| 20260509195004 | 52 | 250 | 0.0 | 0.0 | 0.00 | 0.00 | 0.00 | 92 | 1025.7 |
| 20260509194508 | 52 | 250 | 0.0 | 0.0 | 0.00 | 0.00 | 0.00 | 91 | 1025.4 |
| 20260509194004 | 52 | 250 | 0.0 | 0.0 | 0.00 | 0.00 | 0.00 | 91 | 1025.4 |
| 20260509193504 | 52 | 250 | 0.0 | 0.0 | 0.00 | 0.00 | 0.00 | 90 | 1025.4 |
| 20260509193004 | 53 | 250 | 0.0 | 0.0 | 0.00 | 0.00 | 0.00 | 89 | 1025.4 |
| 20260509192504 | 53 | 250 | 0.0 | 0.0 | 0.00 | 0.00 | 0.00 | 88 | 1025.1 |
| 20260509192004 | 54 | 250 | 0.9 | 0.9 | 0.00 | 0.00 | 0.00 | 87 | 1025.1 |
| 20260509191504 | 54 | 248 | 0.9 | 0.9 | 0.00 | 0.00 | 0.00 | 86 | 1025.1 |
| 20260509191005 | 54 | 252 | 0.9 | 0.9 | 0.00 | 0.00 | 0.00 | 86 | 1025.1 |
| 20260509190505 | 54 | 255 | 0.0 | 0.0 | 0.00 | 0.00 | 0.00 | 86 | 1025.1 |
| 20260509190006 | 55 | 243 | 0.9 | 0.9 | 0.00 | 0.00 | 0.00 | 86 | 1025.1 |
| 20260509185504 | 55 | 265 | 0.9 | 1.7 | 0.00 | 0.00 | 0.00 | 86 | 1025.1 |
| 20260509185004 | 55 | 267 | 0.0 | 0.9 | 0.00 | 0.00 | 0.00 | 86 | 1025.1 |
| 20260509184504 | 55 | 274 | 0.0 | 0.0 | 0.00 | 0.00 | 0.00 | 86 | 1025.1 |
| 20260509184006 | 55 | 274 | 0.0 | 0.0 | 0.00 | 0.00 | 0.00 | 86 | 1025.1 |
| 20260509183505 | 55 | 273 | 0.0 | 0.9 | 0.00 | 0.00 | 0.00 | 85 | 1025.4 |
| 20260509183004 | 55 | 270 | 0.0 | 0.9 | 0.00 | 0.00 | 0.00 | 86 | 1025.4 |
| 20260509182504 | 54 | 270 | 0.0 | 0.9 | 0.00 | 0.00 | 0.00 | 88 | 1025.1 |
| 20260509182005 | 54 | 270 | 0.0 | 0.0 | 0.00 | 0.00 | 0.00 | 89 | 1025.1 |
| 20260509181504 | 54 | 270 | 0.0 | 0.0 | 0.00 | 0.00 | 0.00 | 90 | 1025.1 |
| 20260509181006 | 53 | 270 | 0.0 | 0.0 | 0.00 | 0.00 | 0.00 | 90 | 1025.1 |
| 20260509180504 | 53 | 264 | 0.0 | 0.0 | 0.00 | 0.00 | 0.00 | 90 | 1025.1 |
| 20260509180004 | 53 | 264 | 0.0 | 0.0 | 0.00 | 0.00 | 0.00 | 90 | 1024.7 |
| 20260509175504 | 53 | 264 | 0.9 | 0.9 | 0.00 | 0.00 | 0.00 | 90 | 1024.7 |
| 20260509175004 | 53 | 264 | 0.9 | 0.9 | 0.00 | 0.00 | 0.00 | 90 | 1024.7 |
| 20260509174505 | 53 | 285 | 0.0 | 0.9 | 0.00 | 0.00 | 0.00 | 92 | 1024.7 |
| 20260509174004 | 52 | 259 | 0.0 | 0.0 | 0.00 | 0.00 | 0.00 | 93 | 1024.7 |
| 20260509173504 | 52 | 259 | 0.9 | 0.9 | 0.00 | 0.00 | 0.00 | 93 | 1024.7 |
| 20260509173005 | 53 | 259 | 0.0 | 0.9 | 0.00 | 0.00 | 0.00 | 92 | 1024.7 |
| 20260509172505 | 52 | 256 | 0.0 | 0.9 | 0.00 | 0.00 | 0.00 | 92 | 1024.7 |
| 20260509172004 | 52 | 259 | 0.9 | 0.9 | 0.00 | 0.00 | 0.00 | 92 | 1024.7 |
| 20260509171504 | 52 | 260 | 0.9 | 0.9 | 0.00 | 0.00 | 0.00 | 92 | 1024.7 |
| 20260509171005 | 53 | 260 | 0.0 | 0.0 | 0.00 | 0.00 | 0.00 | 92 | 1024.7 |
| 20260509170505 | 53 | 258 | 0.0 | 0.9 | 0.00 | 0.00 | 0.00 | 93 | 1024.7 |
| 20260509170005 | 52 | 262 | 0.0 | 0.0 | 0.00 | 0.00 | 0.00 | 94 | 1025.1 |
| 20260509165505 | 52 | 262 | 0.0 | 0.0 | 0.00 | 0.00 | 0.00 | 94 | 1025.1 |
| 20260509165005 | 52 | 262 | 0.9 | 0.9 | 0.00 | 0.00 | 0.00 | 95 | 1025.1 |
| 20260509164505 | 51 | 263 | 0.0 | 0.9 | 0.00 | 0.00 | 0.00 | 95 | 1025.1 |
| 20260509164004 | 51 | 263 | 0.0 | 0.0 | 0.00 | 0.00 | 0.00 | 96 | 1025.1 |
| 20260509163504 | 51 | 263 | 0.0 | 0.0 | 0.00 | 0.00 | 0.00 | 95 | 1025.1 |
| 20260509163004 | 51 | 263 | 0.0 | 0.0 | 0.00 | 0.00 | 0.00 | 96 | 1025.1 |
| 20260509162504 | 51 | 263 | 0.9 | 0.9 | 0.00 | 0.00 | 0.00 | 96 | 1025.1 |
| 20260509162004 | 51 | 263 | 0.0 | 0.0 | 0.00 | 0.00 | 0.00 | 96 | 1025.1 |
| 20260509161504 | 51 | 263 | 0.0 | 0.0 | 0.00 | 0.00 | 0.00 | 96 | 1025.1 |
| 20260509161005 | 51 | 263 | 0.0 | 0.0 | 0.00 | 0.00 | 0.00 | 97 | 1024.7 |
| 20260509160504 | 51 | 263 | 0.0 | 0.0 | 0.00 | 0.00 | 0.00 | 97 | 1024.7 |
| 20260509160004 | 51 | 263 | 0.0 | 0.0 | 0.00 | 0.00 | 0.00 | 96 | 1024.7 |
| 20260509155504 | 51 | 263 | 0.0 | 0.0 | 0.00 | 0.00 | 0.00 | 96 | 1024.7 |
| 20260509155004 | 51 | 263 | 0.0 | 0.0 | 0.00 | 0.00 | 0.00 | 95 | 1024.7 |
| 20260509154504 | 51 | 263 | 0.9 | 0.9 | 0.00 | 0.00 | 0.00 | 96 | 1024.7 |
| 20260509154006 | 51 | 263 | 0.9 | 0.9 | 0.00 | 0.00 | 0.00 | 96 | 1024.7 |
| 20260509153504 | 51 | 263 | 0.0 | 0.0 | 0.00 | 0.00 | 0.00 | 95 | 1024.7 |
| 20260509153004 | 51 | 263 | 0.0 | 0.0 | 0.00 | 0.00 | 0.00 | 95 | 1024.7 |
| 20260509152504 | 51 | 263 | 0.0 | 0.0 | 0.00 | 0.00 | 0.00 | 95 | 1025.1 |
| 20260509152005 | 51 | 263 | 0.0 | 0.0 | 0.00 | 0.00 | 0.00 | 95 | 1025.1 |
| 20260509151504 | 52 | 263 | 0.0 | 0.0 | 0.00 | 0.00 | 0.00 | 95 | 1025.1 |
| 20260509151005 | 52 | 263 | 0.0 | 0.9 | 0.00 | 0.00 | 0.00 | 95 | 1025.1 |
| 20260509150504 | 52 | 263 | 0.0 | 0.0 | 0.00 | 0.00 | 0.00 | 95 | 1025.1 |
| 20260509150005 | 52 | 263 | 0.0 | 0.0 | 0.00 | 0.00 | 0.00 | 94 | 1025.1 |
| 20260509145505 | 52 | 263 | 0.0 | 0.0 | 0.00 | 0.00 | 0.00 | 94 | 1025.1 |
| 20260509145004 | 52 | 263 | 0.0 | 0.0 | 0.00 | 0.00 | 0.00 | 94 | 1025.1 |
| 20260509144504 | 53 | 253 | 0.0 | 0.9 | 0.00 | 0.00 | 0.00 | 93 | 1025.1 |
| 20260509144004 | 53 | 268 | 0.0 | 0.9 | 0.00 | 0.00 | 0.00 | 93 | 1025.1 |
| 20260509143505 | 53 | 279 | 0.0 | 0.0 | 0.00 | 0.00 | 0.00 | 94 | 1025.1 |
| 20260509143004 | 53 | 271 | 0.0 | 0.9 | 0.00 | 0.00 | 0.00 | 93 | 1025.1 |
| 20260509142505 | 53 | 262 | 0.9 | 0.9 | 0.00 | 0.00 | 0.00 | 93 | 1025.4 |
| 20260509142005 | 54 | 274 | 0.9 | 0.9 | 0.00 | 0.00 | 0.00 | 93 | 1025.4 |
| 20260509141504 | 54 | 278 | 0.0 | 0.0 | 0.00 | 0.00 | 0.00 | 93 | 1025.4 |
| 20260509141004 | 54 | 278 | 0.0 | 0.0 | 0.00 | 0.00 | 0.00 | 94 | 1025.1 |
| 20260509140504 | 54 | 278 | 0.0 | 0.0 | 0.00 | 0.00 | 0.00 | 94 | 1025.1 |
| 20260509140005 | 54 | 278 | 0.0 | 0.0 | 0.00 | 0.00 | 0.00 | 93 | 1025.1 |
| 20260509135505 | 54 | 278 | 0.0 | 0.0 | 0.00 | 0.00 | 0.00 | 93 | 1025.1 |
| 20260509135004 | 54 | 278 | 0.0 | 0.0 | 0.00 | 0.00 | 0.00 | 92 | 1025.1 |
| 20260509134024 | 55 | 278 | 0.0 | 0.0 | 0.00 | 0.00 | 0.00 | 90 | 1025.4 |
| 20260509133504 | 55 | 278 | 0.0 | 0.0 | 0.00 | 0.00 | 0.00 | 88 | 1025.4 |
| 20260509133006 | 56 | 277 | 0.9 | 0.9 | 0.00 | 0.00 | 0.00 | 87 | 1025.4 |
| 20260509132504 | 56 | 250 | 0.0 | 0.0 | 0.00 | 0.00 | 0.00 | 86 | 1025.4 |
| 20260509132004 | 56 | 250 | 0.9 | 0.9 | 0.00 | 0.00 | 0.00 | 87 | 1025.4 |
| 20260509131504 | 57 | 250 | 0.9 | 0.9 | 0.00 | 0.00 | 0.00 | 87 | 1025.4 |
| 20260509131004 | 56 | 244 | 0.9 | 1.7 | 0.00 | 0.00 | 0.00 | 87 | 1025.4 |
| 20260509130504 | 56 | 234 | 0.9 | 1.7 | 0.00 | 0.00 | 0.00 | 87 | 1025.4 |
| 20260509130005 | 56 | 250 | 0.9 | 0.9 | 0.00 | 0.00 | 0.00 | 88 | 1025.4 |
| 20260509125504 | 56 | 250 | 0.9 | 0.9 | 0.00 | 0.00 | 0.00 | 90 | 1025.4 |
| 20260509125005 | 55 | 250 | 0.0 | 0.0 | 0.00 | 0.00 | 0.00 | 90 | 1025.4 |
| 20260509124505 | 56 | 250 | 0.0 | 0.0 | 0.00 | 0.00 | 0.00 | 89 | 1025.4 |
| 20260509124004 | 56 | 250 | 0.0 | 0.0 | 0.00 | 0.00 | 0.00 | 89 | 1025.4 |
| 20260509123504 | 56 | 250 | 0.0 | 0.0 | 0.00 | 0.00 | 0.00 | 87 | 1025.4 |
| 20260509123004 | 57 | 250 | 0.0 | 0.0 | 0.00 | 0.00 | 0.00 | 87 | 1025.4 |
| 20260509122504 | 57 | 250 | 0.0 | 0.9 | 0.00 | 0.00 | 0.00 | 86 | 1025.4 |
| 20260509122004 | 58 | 250 | 0.9 | 0.9 | 0.00 | 0.00 | 0.00 | 86 | 1025.4 |
| 20260509121505 | 57 | 250 | 0.9 | 0.9 | 0.00 | 0.00 | 0.00 | 86 | 1025.4 |
| 20260509121004 | 56 | 250 | 0.0 | 0.0 | 0.00 | 0.00 | 0.00 | 87 | 1025.4 |
| 20260509120504 | 56 | 250 | 0.0 | 0.0 | 0.00 | 0.00 | 0.00 | 88 | 1025.4 |
| 20260509120005 | 56 | 250 | 0.0 | 0.0 | 0.00 | 0.00 | 0.00 | 87 | 1025.4 |
| 20260509115504 | 57 | 250 | 0.0 | 0.0 | 0.00 | 0.00 | 0.00 | 86 | 1025.4 |
| 20260509115004 | 57 | 250 | 0.9 | 0.9 | 0.00 | 0.00 | 0.00 | 86 | 1025.4 |
| 20260509114511 | 57 | 250 | 0.9 | 0.9 | 0.00 | 0.00 | 0.00 | 86 | 1025.4 |
| 20260509114004 | 57 | 250 | 0.0 | 0.0 | 0.00 | 0.00 | 0.00 | 86 | 1025.4 |
| 20260509113504 | 58 | 246 | 0.0 | 0.0 | 0.00 | 0.00 | 0.00 | 85 | 1025.4 |
| 20260509113005 | 58 | 246 | 0.0 | 0.0 | 0.00 | 0.00 | 0.00 | 84 | 1025.4 |
| 20260509112505 | 58 | 246 | 0.0 | 0.0 | 0.00 | 0.00 | 0.00 | 84 | 1025.4 |
| 20260509112004 | 58 | 246 | 0.0 | 0.9 | 0.00 | 0.00 | 0.00 | 83 | 1025.4 |
| 20260509111504 | 58 | 246 | 0.0 | 0.0 | 0.00 | 0.00 | 0.00 | 82 | 1025.4 |
| 20260509111004 | 59 | 246 | 0.9 | 0.9 | 0.00 | 0.00 | 0.00 | 82 | 1025.4 |
| 20260509110504 | 58 | 246 | 0.0 | 0.0 | 0.00 | 0.00 | 0.00 | 84 | 1025.4 |
| 20260509110004 | 58 | 246 | 0.0 | 0.0 | 0.00 | 0.00 | 0.00 | 83 | 1025.4 |
| 20260509105504 | 59 | 246 | 0.0 | 0.0 | 0.00 | 0.00 | 0.00 | 82 | 1025.4 |
| 20260509105004 | 59 | 246 | 0.9 | 0.9 | 0.00 | 0.00 | 0.00 | 81 | 1025.4 |
| 20260509104504 | 59 | 246 | 0.0 | 0.0 | 0.00 | 0.00 | 0.00 | 80 | 1025.4 |
| 20260509104004 | 59 | 246 | 0.0 | 0.0 | 0.00 | 0.00 | 0.00 | 80 | 1025.4 |
| 20260509103504 | 60 | 246 | 0.9 | 0.9 | 0.00 | 0.00 | 0.00 | 79 | 1025.4 |
| 20260509103004 | 59 | 246 | 0.9 | 0.9 | 0.00 | 0.00 | 0.00 | 79 | 1025.4 |
| 20260509102504 | 59 | 250 | 0.9 | 0.9 | 0.00 | 0.00 | 0.00 | 80 | 1025.1 |
| 20260509102004 | 59 | 252 | 0.9 | 0.9 | 0.00 | 0.00 | 0.00 | 79 | 1025.1 |
| 20260509101505 | 59 | 252 | 0.0 | 0.9 | 0.00 | 0.00 | 0.00 | 79 | 1025.1 |
| 20260509101004 | 59 | 253 | 0.0 | 0.0 | 0.00 | 0.00 | 0.00 | 79 | 1025.1 |
| 20260509100505 | 60 | 252 | 0.0 | 0.0 | 0.00 | 0.00 | 0.00 | 78 | 1025.1 |
| 20260509100006 | 60 | 252 | 0.0 | 0.9 | 0.00 | 0.00 | 0.00 | 77 | 1024.7 |
| 20260509095504 | 61 | 253 | 0.0 | 0.0 | 0.00 | 0.00 | 0.00 | 77 | 1024.7 |
| 20260509094517 | 62 | 253 | 0.9 | 0.9 | 0.00 | 0.00 | 0.00 | 75 | 1024.7 |
| 20260509094005 | 62 | 253 | 0.9 | 1.7 | 0.00 | 0.00 | 0.00 | 74 | 1024.7 |
| 20260509093504 | 62 | 252 | 0.9 | 1.7 | 0.00 | 0.00 | 0.00 | 73 | 1024.4 |
| 20260509093005 | 62 | 248 | 0.9 | 0.9 | 0.00 | 0.00 | 0.00 | 74 | 1024.4 |
| 20260509092505 | 62 | 253 | 0.9 | 0.9 | 0.00 | 0.00 | 0.00 | 73 | 1024.4 |
| 20260509092004 | 62 | 260 | 0.9 | 0.9 | 0.00 | 0.00 | 0.00 | 73 | 1024.4 |
| 20260509091504 | 62 | 258 | 0.9 | 0.9 | 0.00 | 0.00 | 0.00 | 73 | 1024.4 |
| 20260509091005 | 62 | 256 | 0.0 | 0.9 | 0.00 | 0.00 | 0.00 | 72 | 1024.4 |
| 20260509090504 | 62 | 261 | 0.0 | 0.0 | 0.00 | 0.00 | 0.00 | 71 | 1024.4 |
| 20260509090004 | 62 | 265 | 0.9 | 0.9 | 0.00 | 0.00 | 0.00 | 71 | 1023.7 |
| 20260509085504 | 62 | 270 | 0.9 | 0.9 | 0.00 | 0.00 | 0.00 | 71 | 1023.7 |
| 20260509085004 | 62 | 282 | 0.9 | 1.7 | 0.00 | 0.00 | 0.00 | 71 | 1023.7 |
| 20260509084504 | 62 | 297 | 0.9 | 0.9 | 0.00 | 0.00 | 0.00 | 70 | 1023.7 |
| 20260509084005 | 63 | 280 | 0.9 | 0.9 | 0.00 | 0.00 | 0.00 | 69 | 1023.7 |
| 20260509083504 | 63 | 293 | 0.9 | 1.7 | 0.00 | 0.00 | 0.00 | 69 | 1023.7 |
| 20260509083004 | 63 | 305 | 0.9 | 0.9 | 0.00 | 0.00 | 0.00 | 68 | 1023.7 |
| 20260509082504 | 63 | 297 | 0.9 | 0.9 | 0.00 | 0.00 | 0.00 | 68 | 1023.4 |
| 20260509082004 | 64 | 322 | 0.9 | 0.9 | 0.00 | 0.00 | 0.00 | 67 | 1023.4 |
| 20260509081504 | 64 | 295 | 0.0 | 0.9 | 0.00 | 0.00 | 0.00 | 67 | 1023.4 |
| 20260509081004 | 64 | 282 | 0.0 | 0.9 | 0.00 | 0.00 | 0.00 | 66 | 1023.4 |
| 20260509080504 | 64 | 320 | 0.9 | 0.9 | 0.00 | 0.00 | 0.00 | 66 | 1023.4 |
| 20260509080005 | 65 | 321 | 0.9 | 0.9 | 0.00 | 0.00 | 0.00 | 64 | 1023.4 |
| 20260509075509 | 65 | 320 | 0.0 | 0.0 | 0.00 | 0.00 | 0.00 | 65 | 1023.4 |
| 20260509075005 | 65 | 322 | 0.9 | 0.9 | 0.00 | 0.00 | 0.00 | 64 | 1023.4 |
| 20260509074504 | 65 | 324 | 0.9 | 0.9 | 0.00 | 0.00 | 0.00 | 63 | 1023.0 |
| 20260509074005 | 66 | 325 | 0.0 | 0.9 | 0.00 | 0.00 | 0.00 | 62 | 1023.0 |
| 20260509073504 | 67 | 325 | 0.9 | 0.9 | 0.00 | 0.00 | 0.00 | 61 | 1023.0 |
| 20260509073004 | 67 | 327 | 0.9 | 0.9 | 0.00 | 0.00 | 0.00 | 59 | 1023.0 |
| 20260509072504 | 68 | 322 | 0.9 | 0.9 | 0.00 | 0.00 | 0.00 | 58 | 1022.7 |
| 20260509072004 | 69 | 326 | 0.0 | 0.0 | 0.00 | 0.00 | 0.00 | 56 | 1022.7 |
| 20260509071504 | 69 | 328 | 0.9 | 0.9 | 0.00 | 0.00 | 0.00 | 54 | 1022.7 |
| 20260509071004 | 70 | 322 | 2.6 | 2.6 | 0.00 | 0.00 | 0.00 | 54 | 1022.7 |
| 20260509070505 | 70 | 326 | 0.9 | 0.9 | 0.00 | 0.00 | 0.00 | 53 | 1022.7 |
| 20260509070004 | 71 | 329 | 0.9 | 1.7 | 0.00 | 0.00 | 0.00 | 52 | 1022.7 |
| 20260509065504 | 71 | 352 | 0.9 | 0.9 | 0.00 | 0.00 | 0.00 | 52 | 1022.7 |
| 20260509065005 | 72 | 335 | 1.7 | 1.7 | 0.00 | 0.00 | 0.00 | 52 | 1022.7 |
| 20260509064504 | 72 | 292 | 0.9 | 0.9 | 0.00 | 0.00 | 0.00 | 51 | 1022.7 |
| 20260509064004 | 73 | 294 | 0.9 | 0.9 | 0.00 | 0.00 | 0.00 | 50 | 1022.7 |
| 20260509063504 | 73 | 262 | 1.7 | 1.7 | 0.00 | 0.00 | 0.00 | 49 | 1022.7 |
| 20260509063006 | 73 | 253 | 0.9 | 0.9 | 0.00 | 0.00 | 0.00 | 49 | 1022.7 |
| 20260509062504 | 73 | 286 | 0.9 | 0.9 | 0.00 | 0.00 | 0.00 | 48 | 1022.4 |
| 20260509062004 | 74 | 322 | 0.9 | 0.9 | 0.00 | 0.00 | 0.00 | 48 | 1022.4 |
| 20260509061504 | 75 | 337 | 0.9 | 1.7 | 0.00 | 0.00 | 0.00 | 47 | 1022.4 |
| 20260509061004 | 76 | 239 | 0.9 | 1.7 | 0.00 | 0.00 | 0.00 | 46 | 1022.4 |
| 20260509060504 | 76 | 126 | 0.9 | 0.9 | 0.00 | 0.00 | 0.00 | 46 | 1022.4 |
| 20260509060004 | 75 | 134 | 0.0 | 0.0 | 0.00 | 0.00 | 0.00 | 45 | 1022.4 |
| 20260509055505 | 75 | 270 | 1.7 | 2.6 | 0.00 | 0.00 | 0.00 | 46 | 1022.4 |
| 20260509055004 | 74 | 148 | 1.7 | 1.7 | 0.00 | 0.00 | 0.00 | 47 | 1022.4 |
| 20260509054505 | 74 | 134 | 2.6 | 3.5 | 0.00 | 0.00 | 0.00 | 47 | 1022.4 |
| 20260509054004 | 74 | 323 | 0.0 | 0.0 | 0.00 | 0.00 | 0.00 | 47 | 1022.4 |
| 20260509053504 | 74 | 353 | 0.9 | 0.9 | 0.00 | 0.00 | 0.00 | 47 | 1022.0 |
| 20260509053005 | 74 | 153 | 0.9 | 0.9 | 0.00 | 0.00 | 0.00 | 46 | 1022.0 |
| 20260509052504 | 75 | 281 | 0.9 | 0.9 | 0.00 | 0.00 | 0.00 | 47 | 1022.4 |
| 20260509052004 | 74 | 250 | 3.5 | 3.5 | 0.00 | 0.00 | 0.00 | 47 | 1022.4 |
| 20260509051505 | 74 | 336 | 1.7 | 2.6 | 0.00 | 0.00 | 0.00 | 47 | 1022.4 |
| 20260509051004 | 75 | 188 | 1.7 | 3.5 | 0.00 | 0.00 | 0.00 | 47 | 1022.4 |
| 20260509050505 | 75 | 213 | 0.9 | 2.6 | 0.00 | 0.00 | 0.00 | 47 | 1022.4 |
| 20260509050004 | 75 | 0 | 1.7 | 1.7 | 0.00 | 0.00 | 0.00 | 47 | 1022.4 |
| 20260509045504 | 75 | 27 | 0.9 | 0.9 | 0.00 | 0.00 | 0.00 | 47 | 1022.4 |